EZY13LT EGCC-LEMG

Flight info

Callsign EZY13LT
Flight time 2h 40m
Altitude 38000
Route KUXEM P17 BEPHE DCT OSSEP DCT ELNIF DCT ZESPE DCT KLAKI DCT SALCO DCT NOVAN DCT DELOG DCT CRISA N864 VULPE
Aircraft A320/M-SDE3FGHIRWY/LB1

Departure

Time 2026-05-07 14:29
Airport Manchester Airport (EGCC)

Arrival

Time 2026-05-07 17:10
Airport Málaga-Costa del Sol Airport (LEMG)
Time Latitude Longitude Altitude Speed Heading
2026-05-07 14:01 53.36858 -2.28617 251 ft 0 kts 314°
2026-05-07 14:10 53.36858 -2.28616 251 ft 0 kts 314°
2026-05-07 14:16 53.36849 -2.28602 251 ft 2 kts 314°
2026-05-07 14:16 53.36837 -2.28581 251 ft 2 kts 314°
2026-05-07 14:16 53.36825 -2.28560 251 ft 2 kts 314°
2026-05-07 14:17 53.36813 -2.28540 250 ft 2 kts 314°
2026-05-07 14:17 53.36803 -2.28518 250 ft 2 kts 263°
2026-05-07 14:17 53.36806 -2.28500 250 ft 0 kts 217°
2026-05-07 14:23 53.36788 -2.28523 251 ft 9 kts 218°
2026-05-07 14:23 53.36723 -2.28624 252 ft 15 kts 224°
2026-05-07 14:23 53.36638 -2.28763 253 ft 19 kts 220°
2026-05-07 14:23 53.36562 -2.28683 253 ft 16 kts 122°
2026-05-07 14:24 53.36478 -2.28546 253 ft 18 kts 136°
2026-05-07 14:24 53.36383 -2.28384 252 ft 21 kts 134°
2026-05-07 14:24 53.36277 -2.28205 251 ft 22 kts 134°
2026-05-07 14:24 53.36167 -2.28019 250 ft 23 kts 136°
2026-05-07 14:25 53.36047 -2.27838 249 ft 23 kts 157°
2026-05-07 14:25 53.35918 -2.27845 250 ft 14 kts 186°
2026-05-07 14:25 53.35855 -2.27812 249 ft 11 kts 134°
2026-05-07 14:25 53.35794 -2.27699 248 ft 15 kts 132°
2026-05-07 14:26 53.35694 -2.27617 247 ft 17 kts 153°
2026-05-07 14:26 53.35597 -2.27493 245 ft 13 kts 141°
2026-05-07 14:26 53.35572 -2.27458 245 ft 1 kts 140°
2026-05-07 14:26 53.35571 -2.27456 244 ft 0 kts 140°
2026-05-07 14:27 53.35556 -2.27435 244 ft 6 kts 139°
2026-05-07 14:27 53.35507 -2.27369 245 ft 11 kts 142°
2026-05-07 14:27 53.35433 -2.27269 244 ft 16 kts 141°
2026-05-07 14:27 53.35323 -2.27193 249 ft 18 kts 187°
2026-05-07 14:28 53.35212 -2.27228 261 ft 14 kts 191°
2026-05-07 14:28 53.35127 -2.27259 270 ft 11 kts 192°
2026-05-07 14:28 53.35042 -2.27291 273 ft 15 kts 197°
2026-05-07 14:28 53.34951 -2.27444 268 ft 25 kts 231°
2026-05-07 14:29 53.34766 -2.27826 262 ft 72 kts 232°
2026-05-07 14:29 53.34302 -2.28785 251 ft 137 kts 231°
2026-05-07 14:29 53.33597 -2.30230 404 ft 175 kts 228°
2026-05-07 14:29 53.32817 -2.31855 979 ft 189 kts 229°
2026-05-07 14:30 53.32000 -2.33742 1524 ft 214 kts 237°
2026-05-07 14:30 53.31429 -2.36205 2035 ft 243 kts 256°
2026-05-07 14:30 53.31396 -2.39121 2812 ft 259 kts 276°
2026-05-07 14:30 53.31833 -2.42079 3771 ft 263 kts 280°
2026-05-07 14:31 53.32034 -2.45069 4767 ft 262 kts 265°
2026-05-07 14:31 53.31760 -2.48096 5736 ft 260 kts 253°
2026-05-07 14:31 53.31275 -2.50975 6691 ft 262 kts 251°
2026-05-07 14:31 53.30729 -2.53904 7561 ft 265 kts 250°
2026-05-07 14:32 53.30162 -2.56861 8486 ft 268 kts 249°
2026-05-07 14:32 53.29522 -2.59806 9349 ft 271 kts 244°
2026-05-07 14:32 53.28729 -2.62688 10228 ft 274 kts 239°
2026-05-07 14:32 53.27578 -2.65211 11028 ft 275 kts 222°
2026-05-07 14:33 53.26045 -2.67167 11656 ft 285 kts 213°
2026-05-07 14:33 53.24339 -2.69098 11910 ft 308 kts 213°
2026-05-07 14:33 53.22512 -2.71186 12283 ft 324 kts 213°
2026-05-07 14:33 53.20665 -2.73313 12925 ft 331 kts 213°
2026-05-07 14:34 53.18757 -2.75513 13639 ft 335 kts 213°
2026-05-07 14:34 53.16827 -2.77738 14294 ft 340 kts 213°
2026-05-07 14:34 53.14873 -2.79988 14945 ft 343 kts 214°
2026-05-07 14:34 53.12899 -2.82261 15615 ft 346 kts 214°
2026-05-07 14:35 53.10897 -2.84530 16261 ft 350 kts 211°
2026-05-07 14:35 53.08689 -2.86285 16874 ft 354 kts 199°
2026-05-07 14:35 53.06287 -2.87199 17504 ft 358 kts 187°
2026-05-07 14:35 53.03777 -2.87207 18137 ft 363 kts 175°
2026-05-07 14:36 53.01299 -2.86545 18661 ft 368 kts 172°
2026-05-07 14:36 52.98761 -2.85842 19211 ft 371 kts 172°
2026-05-07 14:36 52.96207 -2.85153 19722 ft 374 kts 172°
2026-05-07 14:36 52.93623 -2.84461 20206 ft 378 kts 172°
2026-05-07 14:37 52.91017 -2.83764 20728 ft 381 kts 172°
2026-05-07 14:37 52.85738 -2.82343 21780 ft 387 kts 172°
2026-05-07 14:37 52.83073 -2.81629 22275 ft 390 kts 172°
2026-05-07 14:38 52.80385 -2.80907 22767 ft 393 kts 172°
2026-05-07 14:38 52.77716 -2.80189 23240 ft 396 kts 172°
2026-05-07 14:38 52.74989 -2.79456 23715 ft 398 kts 172°
2026-05-07 14:38 52.72243 -2.78718 24115 ft 401 kts 172°
2026-05-07 14:39 52.69485 -2.77977 24515 ft 403 kts 172°
2026-05-07 14:39 52.66711 -2.77235 24912 ft 405 kts 172°
2026-05-07 14:39 52.63920 -2.76492 25321 ft 407 kts 172°
2026-05-07 14:39 52.61103 -2.75926 25689 ft 409 kts 178°
2026-05-07 14:40 52.58261 -2.76030 26090 ft 410 kts 183°
2026-05-07 14:40 52.55405 -2.76292 26481 ft 411 kts 183°
2026-05-07 14:40 52.52573 -2.76548 26855 ft 414 kts 183°
2026-05-07 14:40 52.49694 -2.76804 27232 ft 416 kts 183°
2026-05-07 14:41 52.46793 -2.77056 27578 ft 418 kts 183°
2026-05-07 14:41 52.43881 -2.77305 27950 ft 421 kts 183°
2026-05-07 14:41 52.40952 -2.77556 28333 ft 422 kts 183°
2026-05-07 14:41 52.38009 -2.77811 28675 ft 425 kts 183°
2026-05-07 14:42 52.35049 -2.78064 28976 ft 427 kts 182°
2026-05-07 14:42 52.32074 -2.78314 29309 ft 429 kts 182°
2026-05-07 14:42 52.29085 -2.78564 29651 ft 431 kts 182°
2026-05-07 14:42 52.26085 -2.78820 29953 ft 433 kts 182°
2026-05-07 14:43 52.23108 -2.79078 30205 ft 436 kts 184°
2026-05-07 14:43 52.20077 -2.79339 30452 ft 438 kts 184°
2026-05-07 14:43 52.17028 -2.79599 30710 ft 439 kts 183°
2026-05-07 14:43 52.13976 -2.79856 31044 ft 439 kts 183°
2026-05-07 14:44 52.10929 -2.80114 31399 ft 438 kts 184°
2026-05-07 14:44 52.07891 -2.80369 31760 ft 437 kts 184°
2026-05-07 14:44 52.04857 -2.80627 32138 ft 436 kts 184°
2026-05-07 14:44 52.01829 -2.80888 32487 ft 436 kts 184°
2026-05-07 14:45 51.98842 -2.81145 32803 ft 436 kts 184°
2026-05-07 14:45 51.95814 -2.81403 33146 ft 436 kts 184°
2026-05-07 14:45 51.92787 -2.81658 33496 ft 435 kts 184°
2026-05-07 14:45 51.89766 -2.81911 33856 ft 435 kts 184°
2026-05-07 14:46 51.86744 -2.82165 34190 ft 434 kts 184°
2026-05-07 14:46 51.83741 -2.82498 34475 ft 433 kts 186°
2026-05-07 14:46 51.80741 -2.83027 34755 ft 433 kts 188°
2026-05-07 14:46 51.77756 -2.83692 35021 ft 433 kts 189°
2026-05-07 14:47 51.74820 -2.84403 35270 ft 433 kts 190°
2026-05-07 14:47 51.71843 -2.85127 35520 ft 433 kts 190°
2026-05-07 14:47 51.68859 -2.85830 35762 ft 433 kts 189°
2026-05-07 14:47 51.65879 -2.86500 36003 ft 433 kts 189°
2026-05-07 14:48 51.62891 -2.87148 36233 ft 433 kts 189°
2026-05-07 14:48 51.59900 -2.87781 36458 ft 433 kts 188°
2026-05-07 14:48 51.56910 -2.88402 36678 ft 433 kts 188°
2026-05-07 14:48 51.53916 -2.89024 36907 ft 433 kts 188°
2026-05-07 14:49 51.50968 -2.89640 37126 ft 433 kts 188°
2026-05-07 14:49 51.47981 -2.90267 37339 ft 433 kts 188°
2026-05-07 14:49 51.44995 -2.90900 37539 ft 433 kts 189°
2026-05-07 14:49 51.42008 -2.91538 37732 ft 433 kts 189°
2026-05-07 14:50 51.39020 -2.92175 37933 ft 434 kts 188°
2026-05-07 14:50 51.36029 -2.92808 38125 ft 434 kts 188°
2026-05-07 14:50 51.33036 -2.93436 38317 ft 434 kts 188°
2026-05-07 14:50 51.30039 -2.94062 38493 ft 434 kts 188°
2026-05-07 14:51 51.27050 -2.94684 38664 ft 434 kts 188°
2026-05-07 14:51 51.24090 -2.95301 38808 ft 434 kts 188°
2026-05-07 14:51 51.21095 -2.95929 38956 ft 434 kts 188°
2026-05-07 14:51 51.18097 -2.96562 39013 ft 435 kts 188°
2026-05-07 14:52 51.12088 -2.97824 39022 ft 436 kts 188°
2026-05-07 14:52 51.06077 -2.99073 39024 ft 436 kts 188°
2026-05-07 14:53 51.00063 -3.00312 39024 ft 436 kts 188°
2026-05-07 14:53 50.94092 -3.01542 39026 ft 436 kts 188°
2026-05-07 14:54 50.88079 -3.02780 39035 ft 436 kts 188°
2026-05-07 14:54 50.82057 -3.04027 39041 ft 437 kts 188°
2026-05-07 14:55 50.77028 -3.05063 39043 ft 441 kts 188°
2026-05-07 14:55 50.69891 -3.06528 39045 ft 449 kts 188°
2026-05-07 14:56 50.63648 -3.07797 39043 ft 456 kts 188°
2026-05-07 14:56 50.57349 -3.09073 39025 ft 456 kts 188°
2026-05-07 14:57 50.52119 -3.10139 39031 ft 456 kts 188°
2026-05-07 14:57 50.45826 -3.11414 39030 ft 456 kts 188°
2026-05-07 14:58 50.38524 -3.12925 39032 ft 455 kts 192°
2026-05-07 14:58 50.33541 -3.15449 39032 ft 453 kts 203°
2026-05-07 14:59 50.27704 -3.19173 39028 ft 453 kts 203°
2026-05-07 14:59 50.21852 -3.22869 39030 ft 454 kts 202°
2026-05-07 15:00 50.15986 -3.26566 39033 ft 455 kts 202°
2026-05-07 15:00 50.10110 -3.30263 39042 ft 456 kts 202°
2026-05-07 15:01 50.04224 -3.33957 39042 ft 456 kts 202°
2026-05-07 15:01 49.98370 -3.37628 39043 ft 457 kts 202°
2026-05-07 15:02 49.92477 -3.41319 39042 ft 457 kts 202°
2026-05-07 15:02 49.86574 -3.44990 39042 ft 457 kts 202°
2026-05-07 15:03 49.80667 -3.48653 39040 ft 457 kts 202°
2026-05-07 15:03 49.74765 -3.52121 39040 ft 458 kts 196°
2026-05-07 15:04 49.68442 -3.53246 39027 ft 460 kts 183°
2026-05-07 15:04 49.62045 -3.53568 39030 ft 460 kts 184°
2026-05-07 15:05 49.55641 -3.53909 39030 ft 460 kts 184°
2026-05-07 15:05 49.49241 -3.54255 39031 ft 460 kts 184°
2026-05-07 15:06 49.42886 -3.54592 39022 ft 460 kts 184°
2026-05-07 15:06 49.36480 -3.54925 39021 ft 460 kts 184°
2026-05-07 15:07 49.30076 -3.55255 39023 ft 461 kts 184°
2026-05-07 15:07 49.23668 -3.55587 39015 ft 461 kts 184°
2026-05-07 15:08 49.17257 -3.55920 39014 ft 461 kts 184°
2026-05-07 15:08 49.10891 -3.56244 39018 ft 461 kts 184°
2026-05-07 15:09 49.04474 -3.56569 39019 ft 462 kts 184°
2026-05-07 15:09 48.98049 -3.56908 39015 ft 462 kts 184°
2026-05-07 15:10 48.91620 -3.57250 39025 ft 462 kts 184°
2026-05-07 15:10 48.85255 -3.57579 39027 ft 462 kts 184°
2026-05-07 15:11 48.78824 -3.57905 39028 ft 462 kts 184°
2026-05-07 15:11 48.72404 -3.58224 38997 ft 461 kts 184°
2026-05-07 15:12 48.65986 -3.58552 38999 ft 461 kts 184°
2026-05-07 15:12 48.59574 -3.58880 38990 ft 461 kts 184°
2026-05-07 15:13 48.53207 -3.59197 38997 ft 461 kts 184°
2026-05-07 15:13 48.46797 -3.59518 39007 ft 461 kts 184°
2026-05-07 15:14 48.40391 -3.59854 38987 ft 460 kts 184°
2026-05-07 15:14 48.33993 -3.60183 38990 ft 459 kts 184°
2026-05-07 15:15 48.27607 -3.60502 38995 ft 459 kts 184°
2026-05-07 15:15 48.21263 -3.60815 38998 ft 459 kts 184°
2026-05-07 15:16 48.14877 -3.61121 39001 ft 459 kts 184°
2026-05-07 15:16 48.08481 -3.61436 39009 ft 460 kts 184°
2026-05-07 15:17 48.02078 -3.61761 39005 ft 460 kts 184°
2026-05-07 15:17 47.95732 -3.62076 39000 ft 459 kts 184°
2026-05-07 15:18 47.89353 -3.62396 39004 ft 459 kts 184°
2026-05-07 15:18 47.82970 -3.62713 38997 ft 459 kts 184°
2026-05-07 15:19 47.76592 -3.63036 38998 ft 459 kts 184°
2026-05-07 15:19 47.70203 -3.63342 39010 ft 459 kts 184°
2026-05-07 15:20 47.63859 -3.63650 39019 ft 459 kts 184°
2026-05-07 15:20 47.63174 -3.63684 39010 ft 459 kts 184°
2026-05-07 15:21 47.60909 -3.63795 39018 ft 460 kts 184°
2026-05-07 15:21 47.54518 -3.64107 39025 ft 460 kts 184°
2026-05-07 15:22 47.48161 -3.64403 39024 ft 460 kts 184°
2026-05-07 15:22 47.41757 -3.64714 39029 ft 460 kts 184°
2026-05-07 15:23 47.35355 -3.65025 39027 ft 461 kts 184°
2026-05-07 15:23 47.28943 -3.65338 39025 ft 461 kts 184°
2026-05-07 15:24 47.22528 -3.65651 39026 ft 462 kts 184°
2026-05-07 15:24 47.16142 -3.65959 39029 ft 462 kts 184°
2026-05-07 15:25 47.09719 -3.66259 39026 ft 462 kts 184°
2026-05-07 15:25 47.03286 -3.66569 39026 ft 462 kts 184°
2026-05-07 15:26 46.96861 -3.66874 39030 ft 462 kts 184°
2026-05-07 15:26 46.90430 -3.67178 39016 ft 462 kts 184°
2026-05-07 15:27 46.84046 -3.67486 39018 ft 462 kts 184°
2026-05-07 15:27 46.77612 -3.67790 39017 ft 463 kts 184°
2026-05-07 15:28 46.71175 -3.68092 39017 ft 463 kts 184°
2026-05-07 15:28 46.64739 -3.68394 39016 ft 463 kts 184°
2026-05-07 15:29 46.58303 -3.68702 39013 ft 463 kts 184°
2026-05-07 15:29 46.51906 -3.69007 39014 ft 463 kts 184°
2026-05-07 15:30 46.45461 -3.69300 39008 ft 463 kts 184°
2026-05-07 15:30 46.39024 -3.69591 39012 ft 463 kts 184°
2026-05-07 15:31 46.32577 -3.69900 39009 ft 463 kts 185°
2026-05-07 15:31 46.26158 -3.70580 38998 ft 462 kts 188°
2026-05-07 15:32 46.19825 -3.71660 39003 ft 462 kts 189°
2026-05-07 15:32 46.13436 -3.72748 39006 ft 462 kts 189°
2026-05-07 15:33 46.07038 -3.73726 39001 ft 463 kts 188°
2026-05-07 15:33 46.00638 -3.74644 38981 ft 462 kts 188°
2026-05-07 15:34 45.94290 -3.75564 38980 ft 461 kts 188°
2026-05-07 15:34 45.87911 -3.76501 38980 ft 461 kts 188°
2026-05-07 15:35 45.81522 -3.77445 38978 ft 461 kts 188°
2026-05-07 15:35 45.75135 -3.78391 38979 ft 461 kts 188°
2026-05-07 15:36 45.68745 -3.79318 38978 ft 462 kts 188°
2026-05-07 15:36 45.62341 -3.80247 38985 ft 462 kts 188°
2026-05-07 15:37 45.55978 -3.81183 38991 ft 463 kts 188°
2026-05-07 15:37 45.49571 -3.82121 38972 ft 462 kts 188°
2026-05-07 15:38 45.43177 -3.83056 38972 ft 462 kts 188°
2026-05-07 15:38 45.36783 -3.83990 38967 ft 462 kts 188°
2026-05-07 15:39 45.30390 -3.84912 38961 ft 462 kts 188°
2026-05-07 15:39 45.24038 -3.85818 38963 ft 462 kts 188°
2026-05-07 15:40 45.17635 -3.86736 38961 ft 463 kts 188°
2026-05-07 15:40 45.11210 -3.87654 38954 ft 464 kts 188°
2026-05-07 15:41 45.04777 -3.88594 38963 ft 465 kts 188°
2026-05-07 15:41 44.98374 -3.89513 38952 ft 465 kts 188°
2026-05-07 15:42 44.91938 -3.90432 38942 ft 465 kts 188°
2026-05-07 15:42 44.85501 -3.91341 38950 ft 465 kts 188°
2026-05-07 15:43 44.79065 -3.92246 38948 ft 465 kts 188°
2026-05-07 15:43 44.72627 -3.93164 38945 ft 465 kts 188°
2026-05-07 15:44 44.66232 -3.94068 38939 ft 465 kts 188°
2026-05-07 15:44 44.59792 -3.94982 38946 ft 466 kts 188°
2026-05-07 15:45 44.53337 -3.95898 38937 ft 466 kts 188°
2026-05-07 15:45 44.46876 -3.96798 38936 ft 466 kts 188°
2026-05-07 15:46 44.37248 -3.98158 38925 ft 466 kts 188°
2026-05-07 15:47 44.30800 -3.99044 38919 ft 466 kts 188°
2026-05-07 15:47 44.24334 -3.99795 38927 ft 466 kts 187°
2026-05-07 15:48 44.17864 -4.00494 38925 ft 466 kts 187°
2026-05-07 15:48 44.11438 -4.01213 38916 ft 466 kts 187°
2026-05-07 15:49 44.04969 -4.01948 38912 ft 467 kts 187°
2026-05-07 15:49 43.98501 -4.02680 38909 ft 466 kts 187°
2026-05-07 15:50 43.92024 -4.03412 38911 ft 467 kts 188°
2026-05-07 15:50 43.85554 -4.04155 38904 ft 467 kts 187°
2026-05-07 15:51 43.79079 -4.04891 38902 ft 467 kts 188°
2026-05-07 15:51 43.72651 -4.05611 38900 ft 467 kts 187°
2026-05-07 15:52 43.66173 -4.06330 38897 ft 467 kts 187°
2026-05-07 15:52 43.59699 -4.07056 38898 ft 467 kts 187°
2026-05-07 15:53 43.53223 -4.07784 38893 ft 467 kts 187°
2026-05-07 15:53 43.46790 -4.08507 38892 ft 467 kts 187°
2026-05-07 15:54 43.40315 -4.09233 38897 ft 467 kts 187°
2026-05-07 15:54 43.33835 -4.09946 38896 ft 466 kts 187°
2026-05-07 15:55 43.27372 -4.10660 38901 ft 466 kts 187°
2026-05-07 15:55 43.20910 -4.11381 38894 ft 466 kts 187°
2026-05-07 15:56 43.14487 -4.12100 38890 ft 466 kts 187°
2026-05-07 15:56 43.08023 -4.12824 38907 ft 466 kts 187°
2026-05-07 15:57 43.01554 -4.13535 38908 ft 466 kts 187°
2026-05-07 15:57 42.95083 -4.14236 38906 ft 466 kts 187°
2026-05-07 15:58 42.88611 -4.14942 38908 ft 467 kts 187°
2026-05-07 15:58 42.82174 -4.15641 38915 ft 468 kts 187°
2026-05-07 15:59 42.75676 -4.16353 38922 ft 468 kts 187°
2026-05-07 15:59 42.69188 -4.17065 38911 ft 467 kts 187°
2026-05-07 16:00 42.62738 -4.17768 38912 ft 467 kts 187°
2026-05-07 16:00 42.56308 -4.18468 38915 ft 467 kts 187°
2026-05-07 16:01 42.49831 -4.19169 38912 ft 467 kts 187°
2026-05-07 16:01 42.43342 -4.19873 38917 ft 468 kts 187°
2026-05-07 16:02 42.36848 -4.20574 38923 ft 469 kts 187°
2026-05-07 16:02 42.30346 -4.21266 38920 ft 468 kts 187°
2026-05-07 16:03 42.23899 -4.21957 38915 ft 467 kts 187°
2026-05-07 16:03 42.17420 -4.22654 38912 ft 467 kts 187°
2026-05-07 16:04 42.10949 -4.23349 38899 ft 467 kts 187°
2026-05-07 16:04 42.04466 -4.24042 38912 ft 466 kts 187°
2026-05-07 16:05 41.97994 -4.24732 38912 ft 467 kts 187°
2026-05-07 16:05 41.91571 -4.25414 38912 ft 467 kts 187°
2026-05-07 16:06 41.85086 -4.26095 38909 ft 467 kts 187°
2026-05-07 16:06 41.78611 -4.26786 38909 ft 467 kts 187°
2026-05-07 16:07 41.72137 -4.27468 38912 ft 467 kts 187°
2026-05-07 16:07 41.65695 -4.28142 38908 ft 468 kts 187°
2026-05-07 16:08 41.59199 -4.28826 38921 ft 469 kts 187°
2026-05-07 16:08 41.52693 -4.29510 38925 ft 469 kts 187°
2026-05-07 16:09 41.46184 -4.30203 38915 ft 469 kts 188°
2026-05-07 16:09 41.39720 -4.30885 38924 ft 469 kts 187°
2026-05-07 16:10 41.33219 -4.31554 38929 ft 469 kts 187°
2026-05-07 16:10 41.26716 -4.32225 38931 ft 469 kts 187°
2026-05-07 16:11 41.20211 -4.32897 38920 ft 469 kts 188°
2026-05-07 16:11 41.13744 -4.33575 38930 ft 470 kts 188°
2026-05-07 16:12 41.07229 -4.34257 38933 ft 470 kts 188°
2026-05-07 16:12 41.00708 -4.34931 38918 ft 470 kts 188°
2026-05-07 16:13 40.94184 -4.35600 38927 ft 471 kts 188°
2026-05-07 16:13 40.87653 -4.36266 38931 ft 471 kts 188°
2026-05-07 16:14 40.81124 -4.36938 38938 ft 470 kts 187°
2026-05-07 16:14 40.74642 -4.37610 38939 ft 470 kts 188°
2026-05-07 16:15 40.68129 -4.38284 38935 ft 469 kts 187°
2026-05-07 16:15 40.61617 -4.38948 38934 ft 469 kts 187°
2026-05-07 16:16 40.55107 -4.39603 38931 ft 469 kts 187°
2026-05-07 16:16 40.48601 -4.40264 38929 ft 469 kts 188°
2026-05-07 16:17 40.42142 -4.40923 38923 ft 469 kts 187°
2026-05-07 16:17 40.35635 -4.41579 38898 ft 469 kts 188°
2026-05-07 16:18 40.29114 -4.42236 38890 ft 470 kts 188°
2026-05-07 16:18 40.22578 -4.42901 38892 ft 471 kts 188°
2026-05-07 16:19 40.16046 -4.43563 38876 ft 471 kts 188°
2026-05-07 16:19 40.09555 -4.44218 38885 ft 471 kts 188°
2026-05-07 16:20 40.03016 -4.44875 38880 ft 472 kts 188°
2026-05-07 16:20 39.96468 -4.45527 38886 ft 472 kts 188°
2026-05-07 16:21 39.89912 -4.46189 38873 ft 473 kts 188°
2026-05-07 16:21 39.83394 -4.46839 38881 ft 473 kts 188°
2026-05-07 16:22 39.76822 -4.47482 38889 ft 474 kts 188°
2026-05-07 16:22 39.70250 -4.48138 38879 ft 474 kts 189°
2026-05-07 16:23 39.63674 -4.48791 38887 ft 474 kts 189°
2026-05-07 16:23 39.57135 -4.49437 38895 ft 474 kts 189°
2026-05-07 16:24 39.50556 -4.50088 38899 ft 475 kts 189°
2026-05-07 16:24 39.43969 -4.50737 38892 ft 474 kts 190°
2026-05-07 16:25 39.37404 -4.51393 38884 ft 472 kts 190°
2026-05-07 16:25 39.30859 -4.52038 38885 ft 472 kts 190°
2026-05-07 16:26 39.24360 -4.52667 38875 ft 470 kts 191°
2026-05-07 16:26 39.17844 -4.53293 38881 ft 469 kts 191°
2026-05-07 16:27 39.11333 -4.53930 38869 ft 469 kts 191°
2026-05-07 16:27 39.04827 -4.54576 38872 ft 469 kts 191°
2026-05-07 16:28 38.98364 -4.55211 38863 ft 469 kts 191°
2026-05-07 16:28 38.91882 -4.55912 38878 ft 466 kts 194°
2026-05-07 16:29 38.85507 -4.57145 38882 ft 462 kts 197°
2026-05-07 16:29 38.79216 -4.58629 38841 ft 456 kts 198°
2026-05-07 16:30 38.72974 -4.60027 38854 ft 455 kts 197°
2026-05-07 16:30 38.66764 -4.61314 38856 ft 455 kts 197°
2026-05-07 16:31 38.60507 -4.62584 38857 ft 455 kts 197°
2026-05-07 16:31 38.54251 -4.63863 38830 ft 455 kts 197°
2026-05-07 16:32 38.47974 -4.65169 38858 ft 457 kts 197°
2026-05-07 16:32 38.41694 -4.66465 38867 ft 457 kts 197°
2026-05-07 16:33 38.35457 -4.67745 38879 ft 457 kts 197°
2026-05-07 16:33 38.29184 -4.69027 38867 ft 453 kts 197°
2026-05-07 16:33 38.26080 -4.69660 38389 ft 451 kts 197°
2026-05-07 16:34 38.22993 -4.70293 37456 ft 444 kts 198°
2026-05-07 16:34 38.19985 -4.70904 36748 ft 433 kts 198°
2026-05-07 16:34 38.17035 -4.71502 35964 ft 425 kts 198°
2026-05-07 16:34 38.14136 -4.72092 35176 ft 419 kts 199°
2026-05-07 16:35 38.11318 -4.72669 34383 ft 413 kts 199°
2026-05-07 16:35 38.08498 -4.73250 33556 ft 407 kts 199°
2026-05-07 16:35 38.05721 -4.73822 32692 ft 403 kts 199°
2026-05-07 16:35 38.02971 -4.74384 31847 ft 398 kts 199°
2026-05-07 16:36 38.00250 -4.74942 31083 ft 395 kts 198°
2026-05-07 16:36 37.97535 -4.75500 30527 ft 395 kts 198°
2026-05-07 16:36 37.94829 -4.76058 29974 ft 393 kts 198°
2026-05-07 16:36 37.92133 -4.76611 29372 ft 393 kts 198°
2026-05-07 16:37 37.89435 -4.77160 28823 ft 391 kts 197°
2026-05-07 16:37 37.86795 -4.77691 28288 ft 389 kts 197°
2026-05-07 16:37 37.84229 -4.78205 27748 ft 386 kts 197°
2026-05-07 16:37 37.81512 -4.78763 27215 ft 382 kts 199°
2026-05-07 16:38 37.79004 -4.79683 26692 ft 370 kts 210°
2026-05-07 16:38 37.76739 -4.81115 26187 ft 359 kts 219°
2026-05-07 16:38 37.74766 -4.82961 25704 ft 349 kts 228°
2026-05-07 16:38 37.73109 -4.85147 25216 ft 341 kts 237°
2026-05-07 16:39 37.71723 -4.87543 24759 ft 336 kts 239°
2026-05-07 16:39 37.70366 -4.89930 24312 ft 334 kts 239°
2026-05-07 16:39 37.69028 -4.92267 23886 ft 331 kts 239°
2026-05-07 16:39 37.67681 -4.94611 23458 ft 329 kts 239°
2026-05-07 16:40 37.66343 -4.96937 23166 ft 324 kts 238°
2026-05-07 16:40 37.65019 -4.99240 23079 ft 325 kts 238°
2026-05-07 16:40 37.63674 -5.01530 22935 ft 326 kts 234°
2026-05-07 16:40 37.62019 -5.03502 22749 ft 333 kts 222°
2026-05-07 16:41 37.60016 -5.05032 22312 ft 335 kts 215°
2026-05-07 16:41 37.58002 -5.06440 21956 ft 333 kts 215°
2026-05-07 16:41 37.55982 -5.07852 21591 ft 331 kts 215°
2026-05-07 16:41 37.54000 -5.09241 21231 ft 329 kts 215°
2026-05-07 16:42 37.51927 -5.10490 20867 ft 334 kts 205°
2026-05-07 16:42 37.49640 -5.11116 20509 ft 342 kts 191°
2026-05-07 16:42 37.47243 -5.11135 20119 ft 345 kts 185°
2026-05-07 16:42 37.44851 -5.11086 19737 ft 343 kts 185°
2026-05-07 16:43 37.42465 -5.11044 19350 ft 342 kts 185°
2026-05-07 16:43 37.40091 -5.10991 18987 ft 342 kts 182°
2026-05-07 16:43 37.37727 -5.10468 18607 ft 349 kts 168°
2026-05-07 16:43 37.35487 -5.09223 18206 ft 356 kts 154°
2026-05-07 16:44 37.33361 -5.07638 17785 ft 355 kts 154°
2026-05-07 16:44 37.31241 -5.06059 17398 ft 353 kts 154°
2026-05-07 16:44 37.29166 -5.04512 17016 ft 351 kts 153°
2026-05-07 16:44 37.27002 -5.03180 16627 ft 343 kts 165°
2026-05-07 16:45 37.24782 -5.02126 16370 ft 340 kts 155°
2026-05-07 16:45 37.22885 -5.00364 16088 ft 340 kts 141°
2026-05-07 16:45 37.21135 -4.98386 15767 ft 337 kts 140°
2026-05-07 16:45 37.19389 -4.96398 15224 ft 342 kts 140°
2026-05-07 16:46 37.17599 -4.94387 14639 ft 348 kts 140°
2026-05-07 16:46 37.15774 -4.92372 14067 ft 352 kts 140°
2026-05-07 16:46 37.13923 -4.90344 13520 ft 354 kts 140°
2026-05-07 16:46 37.12086 -4.88327 12771 ft 359 kts 140°
2026-05-07 16:47 37.10192 -4.86258 12008 ft 363 kts 140°
2026-05-07 16:47 37.08273 -4.84175 11251 ft 367 kts 140°
2026-05-07 16:47 37.06254 -4.82222 10505 ft 366 kts 152°
2026-05-07 16:47 37.03890 -4.81104 9789 ft 364 kts 167°
2026-05-07 16:48 37.01429 -4.80354 8997 ft 364 kts 170°
2026-05-07 16:48 36.98957 -4.79696 8222 ft 363 kts 170°
2026-05-07 16:48 36.96490 -4.79065 7463 ft 361 kts 170°
2026-05-07 16:48 36.94036 -4.78447 6727 ft 359 kts 171°
2026-05-07 16:49 36.91587 -4.77828 6024 ft 357 kts 171°
2026-05-07 16:49 36.89277 -4.77255 5867 ft 339 kts 168°
2026-05-07 16:49 36.87118 -4.76291 5729 ft 322 kts 154°
2026-05-07 16:49 36.85303 -4.74781 5601 ft 307 kts 140°
2026-05-07 16:50 36.83859 -4.72916 5478 ft 292 kts 133°
2026-05-07 16:50 36.82546 -4.71062 5360 ft 278 kts 133°
2026-05-07 16:50 36.81296 -4.69300 5234 ft 264 kts 133°
2026-05-07 16:50 36.80104 -4.67621 5120 ft 253 kts 134°
2026-05-07 16:51 36.78962 -4.66014 4994 ft 242 kts 133°
2026-05-07 16:51 36.77870 -4.64478 4870 ft 232 kts 133°
2026-05-07 16:51 36.76866 -4.63066 4713 ft 223 kts 134°
2026-05-07 16:51 36.75832 -4.61614 4423 ft 220 kts 135°
2026-05-07 16:52 36.74820 -4.60192 4167 ft 218 kts 134°
2026-05-07 16:52 36.73818 -4.58786 3903 ft 215 kts 133°
2026-05-07 16:52 36.72770 -4.57314 2544 ft 252 kts 134°
2026-05-07 16:52 36.71591 -4.55675 1430 ft 245 kts 133°
2026-05-07 16:53 36.70489 -4.54149 722 ft 225 kts 131°
2026-05-07 16:53 36.69531 -4.52767 363 ft 195 kts 131°
2026-05-07 16:53 36.68628 -4.51511 721 ft 214 kts 132°
2026-05-07 16:53 36.67541 -4.50020 1427 ft 251 kts 133°
2026-05-07 16:54 36.66398 -4.48454 2972 ft 236 kts 133°
2026-05-07 16:54 36.65342 -4.46973 4331 ft 225 kts 133°
2026-05-07 16:54 36.64308 -4.45513 5316 ft 225 kts 133°
2026-05-07 16:54 36.63248 -4.44041 5820 ft 231 kts 133°
2026-05-07 16:55 36.62075 -4.42447 5967 ft 266 kts 134°
2026-05-07 16:55 36.60639 -4.40929 6004 ft 274 kts 154°
2026-05-07 16:55 36.58839 -4.40315 6009 ft 273 kts 176°
2026-05-07 16:55 36.56938 -4.40213 6008 ft 274 kts 180°
2026-05-07 16:56 36.55032 -4.40171 6003 ft 274 kts 180°
2026-05-07 16:56 36.53126 -4.40135 6002 ft 274 kts 180°
2026-05-07 16:56 36.49438 -4.40878 6001 ft 270 kts 212°
2026-05-07 16:57 36.48049 -4.42414 6001 ft 269 kts 235°
2026-05-07 16:57 36.47283 -4.44510 5999 ft 268 kts 258°
2026-05-07 16:57 36.47258 -4.46802 5999 ft 268 kts 282°
2026-05-07 16:57 36.47983 -4.48914 6000 ft 269 kts 305°
2026-05-07 16:58 36.49336 -4.50521 6001 ft 270 kts 323°
2026-05-07 16:58 36.50865 -4.51889 5999 ft 271 kts 323°
2026-05-07 16:58 36.52372 -4.53242 5999 ft 271 kts 323°
2026-05-07 16:58 36.53900 -4.54619 5999 ft 271 kts 323°
2026-05-07 16:59 36.55423 -4.55995 5999 ft 271 kts 323°
2026-05-07 16:59 36.56934 -4.57364 6008 ft 271 kts 323°
2026-05-07 16:59 36.58453 -4.58738 6006 ft 270 kts 322°
2026-05-07 16:59 36.59967 -4.60106 6004 ft 269 kts 322°
2026-05-07 17:00 36.61481 -4.61478 6004 ft 269 kts 322°
2026-05-07 17:00 36.63110 -4.62628 6007 ft 270 kts 332°
2026-05-07 17:00 36.64800 -4.63670 5863 ft 272 kts 332°
2026-05-07 17:00 36.66490 -4.64702 5708 ft 270 kts 332°
2026-05-07 17:01 36.68180 -4.65731 5658 ft 270 kts 332°
2026-05-07 17:01 36.69846 -4.66747 5594 ft 271 kts 333°
2026-05-07 17:01 36.71536 -4.67776 5534 ft 270 kts 332°
2026-05-07 17:01 36.73224 -4.68808 5472 ft 270 kts 333°
2026-05-07 17:02 36.74912 -4.69839 5399 ft 270 kts 331°
2026-05-07 17:02 36.76599 -4.70872 5341 ft 270 kts 331°
2026-05-07 17:02 36.78283 -4.71902 5285 ft 269 kts 331°
2026-05-07 17:02 36.79956 -4.72927 5000 ft 265 kts 331°
2026-05-07 17:03 36.81622 -4.73950 4988 ft 268 kts 332°
2026-05-07 17:03 36.83305 -4.74983 4986 ft 270 kts 332°
2026-05-07 17:03 36.84968 -4.76003 4981 ft 271 kts 332°
2026-05-07 17:03 36.86662 -4.77033 4955 ft 271 kts 334°
2026-05-07 17:04 36.88499 -4.77439 4831 ft 273 kts
2026-05-07 17:04 36.90215 -4.76483 4705 ft 274 kts 44°
2026-05-07 17:04 36.91197 -4.74488 4574 ft 272 kts 79°
2026-05-07 17:04 36.91095 -4.72186 4450 ft 267 kts 114°
2026-05-07 17:05 36.89968 -4.70425 4316 ft 259 kts 150°
2026-05-07 17:05 36.88869 -4.69884 4232 ft 258 kts 171°
2026-05-07 17:05 36.87106 -4.69465 3894 ft 259 kts 165°
2026-05-07 17:05 36.84855 -4.68511 3607 ft 254 kts 162°
2026-05-07 17:06 36.83197 -4.67736 3846 ft 257 kts 161°
2026-05-07 17:06 36.81566 -4.66796 3904 ft 259 kts 149°
2026-05-07 17:06 36.80185 -4.65369 3522 ft 258 kts 138°
2026-05-07 17:06 36.79325 -4.64353 3207 ft 257 kts 139°
2026-05-07 17:07 36.77946 -4.62965 2794 ft 253 kts 145°
2026-05-07 17:07 36.76541 -4.61674 2474 ft 247 kts 145°
2026-05-07 17:07 36.75233 -4.60453 2291 ft 224 kts 142°
2026-05-07 17:07 36.74081 -4.59163 1752 ft 221 kts 136°
2026-05-07 17:08 36.73085 -4.57770 1456 ft 209 kts 131°
2026-05-07 17:08 36.72164 -4.56413 1142 ft 201 kts 131°
2026-05-07 17:08 36.71016 -4.54787 922 ft 176 kts 133°
2026-05-07 17:08 36.70473 -4.54071 746 ft 160 kts 133°
2026-05-07 17:09 36.69768 -4.53108 508 ft 143 kts 131°
2026-05-07 17:09 36.69124 -4.52212 291 ft 138 kts 130°
2026-05-07 17:09 36.68500 -4.51321 105 ft 135 kts 131°
2026-05-07 17:09 36.67911 -4.50487 56 ft 117 kts 133°
2026-05-07 17:10 36.67619 -4.50096 47 ft 0 kts 132°